Date,TemperatureHighF,TemperatureAvgF,TemperatureLowF,DewpointHighF,DewpointAvgF,DewpointLowF,HumidityHigh,HumidityAvg,HumidityLow,PressureMaxIn,PressureMinIn,WindSpeedMaxMPH,WindSpeedAvgMPH,GustSpeedMaxMPH,PrecipitationSumIn
2013-1-1,0.0,-8.9,-11.6,0.0,-14.8,-19.4,67,51,67,29.03,28.79,12,3,12,0.00
2013-1-2,0.0,0.0,0.0,0.0,0.0,0.0,0,0,100,28.94,28.70,18,5,19,0.00
2013-1-3,0.0,0.0,0.0,0.0,0.0,0.0,0,0,100,29.09,28.82,19,7,19,0.00
2013-1-4,5.4,0.4,0.0,0.0,-0.3,-4.0,69,7,69,28.91,28.79,11,4,11,0.00
2013-1-5,21.9,8.8,-1.8,12.8,0.6,-9.5,84,69,55,28.88,28.64,18,4,18,0.00
2013-1-6,20.3,13.2,5.0,13.7,6.4,-1.8,88,74,63,29.03,28.67,13,4,13,0.00
2013-1-7,35.6,24.5,13.5,21.8,16.8,9.5,87,73,54,28.76,28.61,12,4,12,0.00
2013-1-8,33.8,21.9,7.9,25.7,16.5,4.6,94,80,62,28.76,28.50,26,5,26,0.12
2013-1-9,33.8,27.5,20.8,26.2,17.8,10.9,88,67,55,29.12,28.70,29,8,29,0.04
2013-1-10,41.2,33.9,28.6,32.2,25.0,18.1,98,72,43,28.97,28.47,24,8,24,0.17
2013-1-11,36.1,33.3,21.2,35.6,32.7,18.5,98,97,88,28.50,28.17,19,5,19,0.00
2013-1-12,21.6,7.3,0.5,18.5,3.8,-2.9,90,85,81,28.88,28.23,33,14,33,0.87
2013-1-13,7.0,2.3,-3.3,3.4,-1.2,-6.7,85,85,85,29.03,28.85,15,6,15,0.00
2013-1-14,10.9,3.8,-4.0,7.2,0.3,-7.4,85,85,85,29.17,29.00,10,4,10,0.00
2013-1-15,23.9,14.3,1.9,10.2,5.3,-1.5,85,69,49,29.03,28.52,13,4,13,0.00
2013-1-16,34.0,21.2,-1.5,32.7,12.4,-15.2,98,69,49,29.06,28.44,23,8,23,0.00
2013-1-17,19.4,8.7,-2.7,5.3,-5.0,-16.4,62,53,47,29.17,29.00,17,5,17,0.00
2013-1-18,37.0,26.4,15.1,25.1,18.5,4.2,91,72,57,29.00,28.52,18,6,18,0.00
2013-1-19,38.3,18.0,-1.8,27.3,9.2,-14.1,97,69,50,29.06,28.47,44,14,46,27.61
2013-1-20,8.6,0.2,-8.0,-4.2,-12.1,-19.8,55,55,55,29.15,29.03,24,10,24,0.00
2013-1-21,-3.1,-10.2,-14.6,-15.2,-21.9,-26.1,55,55,55,29.12,29.03,26,9,26,0.00
2013-1-22,5.0,-6.2,-17.7,-7.6,-18.2,-29.1,55,55,55,29.17,29.00,7,2,7,0.00
2013-1-23,8.4,1.7,-10.5,-4.4,-10.8,-22.2,55,55,55,29.38,28.94,28,7,28,0.00
2013-1-24,12.2,1.0,-10.5,-0.9,-11.4,-22.2,55,55,55,29.41,28.88,24,9,24,0.04
2013-1-25,16.7,7.1,-4.7,9.6,-4.6,-15.7,73,58,55,29.12,28.76,35,10,35,1.46
2013-1-26,20.3,9.1,-5.6,7.2,-3.6,-16.6,58,56,48,29.09,28.82,24,8,24,0.00
2013-1-27,32.9,27.3,20.3,29.7,19.6,0.0,95,74,55,28.82,28.55,19,8,19,0.00
2013-1-28,36.5,32.1,30.0,34.3,31.0,28.7,98,96,89,28.64,28.41,20,3,20,0.08
2013-1-29,32.5,28.3,22.1,31.3,24.7,14.1,98,86,71,28.61,28.35,14,2,14,0.00
2013-1-30,22.1,11.0,-0.2,14.8,1.8,-10.3,73,66,58,28.61,28.52,27,9,27,0.00
2013-1-31,-0.4,-5.5,-10.3,-10.3,-15.2,-19.7,62,62,62,29.09,28.61,32,15,32,0.00
2013-2-1,-10.3,-10.3,-10.3,-19.7,-19.7,-19.7,62,62,62,29.09,28.82,17,6,17,0.00
2013-2-2,-10.3,-10.3,-10.3,-19.7,-19.7,-19.7,62,62,62,28.97,28.73,20,4,20,0.00
2013-2-3,0.0,-5.3,-10.3,0.0,-10.1,-19.7,62,32,62,28.88,28.73,24,6,24,0.00
2013-2-4,18.0,3.7,0.0,14.6,0.0,-6.8,88,18,49,28.88,28.47,11,4,11,0.00
2013-2-5,28.9,17.7,1.6,28.1,9.0,-10.8,98,69,54,28.88,28.44,22,7,22,0.00
2013-2-6,32.5,17.9,2.8,18.2,7.9,-9.6,86,65,52,28.88,28.64,27,8,27,0.00
2013-2-7,27.3,22.4,15.3,20.4,16.9,8.0,91,79,65,29.09,28.79,20,8,20,0.00
2013-2-8,31.6,16.9,1.2,20.1,9.3,-4.6,86,73,48,29.12,28.88,27,8,27,0.08
2013-2-9,31.1,27.7,23.5,30.0,24.6,20.0,98,88,77,28.91,28.64,24,9,24,0.00
2013-2-10,29.3,26.9,25.3,28.6,25.6,23.1,98,95,87,28.67,28.14,36,16,36,1.74
2013-2-11,26.4,19.9,7.2,23.1,18.0,4.4,98,92,82,28.88,28.29,30,13,30,0.00
2013-2-12,31.3,19.0,4.6,30.5,15.7,2.1,98,87,61,28.85,28.61,17,4,17,0.00
2013-2-13,37.6,25.6,11.1,31.1,20.8,7.8,98,83,55,28.64,28.35,8,2,8,0.00
2013-2-14,30.6,18.7,0.7,28.9,9.4,-10.8,96,68,44,29.03,28.47,18,5,18,0.00
2013-2-15,20.1,4.6,-4.2,2.5,-8.8,-17.5,58,53,45,29.12,29.00,13,5,13,0.00
2013-2-16,27.1,11.6,5.0,8.8,-2.7,-9.5,71,52,44,29.06,28.82,15,6,15,0.00
2013-2-17,33.6,22.3,5.0,24.4,12.2,-6.9,85,65,52,28.85,28.35,26,10,26,0.00
2013-2-18,31.8,14.5,-2.6,30.5,12.1,-5.0,98,90,78,28.73,28.29,37,15,37,36.68
2013-2-19,-0.9,-5.4,-11.2,-3.6,-7.8,-13.5,89,89,89,29.20,28.73,28,12,28,1.13
2013-2-20,19.2,-0.4,-15.9,17.4,-2.8,-18.2,93,89,88,29.23,29.12,11,4,11,0.00
2013-2-21,25.0,11.8,1.0,24.3,9.5,-1.4,98,90,88,29.20,28.88,22,11,22,0.00
2013-2-22,34.0,21.1,12.0,27.0,16.9,7.9,92,84,58,28.88,28.64,22,7,22,0.00
2013-2-23,29.1,14.8,3.6,19.1,10.1,1.0,89,82,55,28.73,28.64,12,3,12,0.00
2013-2-24,33.1,13.1,0.1,23.7,7.2,-2.3,89,79,49,28.91,28.73,6,1,6,0.00
2013-2-25,31.1,19.9,2.5,25.0,15.4,-2.3,92,83,64,28.91,28.82,9,2,9,0.00
2013-2-26,32.0,22.2,16.2,24.2,18.7,13.7,96,87,70,28.88,28.70,15,4,15,0.04
2013-2-27,37.9,23.7,17.1,21.4,14.6,10.8,85,69,46,28.88,28.70,20,6,20,0.00
2013-2-28,30.9,23.9,12.7,21.2,15.7,6.9,85,71,55,29.06,28.88,12,4,14,0.00
2013-3-1,33.8,17.7,3.6,15.7,9.4,-3.7,82,71,46,29.17,29.00,14,5,14,0.00
2013-3-2,36.9,14.0,-6.0,16.5,3.5,-12.9,82,64,32,29.14,28.91,14,4,14,0.00
2013-3-3,38.1,24.9,13.8,18.7,12.1,6.8,100,59,42,28.91,28.70,28,13,28,0.08
2013-3-4,27.0,23.7,21.9,21.6,18.9,0.0,96,82,72,28.79,28.64,31,17,31,2.44
2013-3-5,34.9,24.9,18.3,21.6,18.0,11.8,92,76,50,29.12,28.73,15,7,15,0.00
2013-3-6,37.4,17.2,1.2,19.0,8.5,-5.4,84,69,43,29.23,29.09,11,3,11,0.04
2013-3-7,34.0,16.4,-1.8,15.5,6.3,-8.4,80,65,45,29.14,29.00,25,8,25,0.00
2013-3-8,46.4,26.4,13.3,29.1,17.6,9.2,87,71,40,29.03,28.85,18,7,18,0.05
2013-3-9,36.1,33.6,32.2,34.7,32.6,28.8,98,96,88,28.85,28.47,17,7,17,0.90
2013-3-10,32.5,27.9,25.0,29.4,20.3,14.7,90,74,58,28.85,28.64,24,9,24,0.30
2013-3-11,28.4,22.5,17.4,17.1,12.0,0.0,77,64,51,28.76,28.58,22,7,22,0.00
2013-3-12,26.8,20.3,13.3,19.8,12.0,5.9,81,70,53,29.03,28.64,31,11,31,0.04
2013-3-13,30.4,17.3,3.4,16.8,7.6,-2.5,76,66,46,29.14,28.94,13,4,13,0.00
2013-3-14,49.3,29.6,19.8,29.2,21.1,15.9,88,73,40,29.00,28.79,20,5,20,0.00
2013-3-15,35.4,29.7,22.8,29.8,26.1,0.0,95,87,75,28.79,28.58,19,9,19,0.05
2013-3-16,22.8,14.6,2.7,20.1,4.1,-10.9,89,64,48,29.06,28.73,18,7,18,0.00
2013-3-17,26.1,15.1,1.2,23.0,2.3,-12.1,94,57,46,29.06,28.47,39,15,39,3.03
2013-3-18,31.5,17.8,9.0,31.0,15.1,6.1,98,89,73,28.73,28.35,38,19,38,0.00
2013-3-19,9.0,9.0,9.0,6.1,6.1,6.1,88,88,88,29.06,28.73,30,14,30,0.00
2013-3-20,9.0,9.0,9.0,6.1,6.1,6.1,88,88,88,29.09,28.94,27,11,27,0.00
2013-3-21,9.0,3.8,0.0,6.1,2.6,0.0,88,37,88,28.94,28.82,7,2,7,0.00
2013-3-22,0.0,0.0,0.0,0.0,0.0,0.0,0,0,100,28.91,28.82,8,2,8,0.00
2013-3-23,31.8,5.5,0.0,34.4,3.5,0.0,75,16,13,28.97,28.88,13,4,13,0.00
2013-3-24,37.9,26.6,18.1,25.5,18.3,11.8,84,71,50,28.88,28.76,19,6,19,0.00
2013-3-25,37.8,27.4,18.7,21.6,17.5,12.1,77,66,44,29.03,28.82,22,7,22,0.00
2013-3-26,39.4,21.9,8.6,21.5,12.7,2.6,81,69,46,29.06,29.00,8,3,8,0.00
2013-3-27,48.4,25.8,7.9,27.6,14.1,2.7,81,64,39,29.12,29.03,13,3,13,0.00
2013-3-28,47.8,32.7,20.5,28.3,22.0,12.3,81,66,45,29.09,29.00,21,8,21,0.00
2013-3-29,34.0,33.2,31.6,30.0,29.0,26.2,86,84,80,29.03,29.00,9,5,9,0.00
2013-3-30,44.2,37.0,31.8,35.5,32.3,29.8,97,83,69,29.00,28.70,14,8,15,0.00
2013-3-31,36.1,30.7,19.8,32.8,21.3,9.7,98,70,44,28.97,28.61,32,13,32,0.00
2013-4-1,33.3,21.9,13.1,16.6,10.8,6.1,77,62,48,29.09,28.94,20,8,20,0.00
2013-4-2,41.7,25.9,15.6,19.7,13.5,8.5,89,62,38,29.12,29.03,11,3,11,0.00
2013-4-3,52.5,33.3,13.8,34.5,21.1,7.8,79,62,45,29.12,28.76,20,5,20,0.00
2013-4-4,47.7,35.2,26.4,33.4,28.2,18.0,91,77,43,29.00,28.76,20,7,20,0.00
2013-4-5,36.1,30.8,22.8,31.1,23.7,0.0,88,75,52,29.00,28.61,34,14,35,0.00
2013-4-6,51.8,39.7,34.0,38.9,32.3,29.2,91,75,57,28.61,28.35,31,10,31,0.00
2013-4-7,50.0,37.9,30.4,36.9,31.7,26.4,96,79,51,32.36,28.52,19,6,19,0.00
2013-4-8,80.2,38.5,35.4,38.9,36.2,0.0,98,92,82,28.88,28.47,20,9,20,0.00
2013-4-9,36.5,32.7,27.5,32.7,21.3,17.6,86,63,51,28.97,28.82,32,11,32,0.00
2013-4-10,36.7,34.4,30.7,29.0,21.6,0.0,92,59,50,29.00,28.70,34,18,34,0.00
2013-4-11,36.3,31.5,27.9,32.5,28.7,25.5,98,89,75,28.73,28.50,42,19,42,0.00
2013-4-12,41.7,31.7,26.1,29.0,25.3,22.7,93,78,51,28.67,28.52,20,7,20,0.00
2013-4-13,43.3,32.5,27.9,26.9,24.2,20.7,92,73,49,28.73,28.64,18,6,18,0.00
2013-4-14,34.3,31.5,28.6,33.7,27.9,23.4,98,87,75,28.70,28.23,42,11,42,0.00
2013-4-15,38.1,34.6,31.5,33.3,28.3,26.2,96,78,64,28.79,28.23,29,7,29,0.00
2013-4-16,46.2,32.3,27.3,28.4,25.0,21.9,87,75,49,29.09,28.76,20,8,23,0.00
2013-4-17,39.2,34.5,28.2,32.9,28.3,0.0,97,79,66,29.09,28.79,23,8,23,0.00
2013-4-18,34.9,32.3,30.7,32.6,30.7,28.5,98,94,85,28.79,28.47,20,6,20,0.00
2013-4-19,38.8,31.6,24.6,30.2,23.0,16.1,98,72,51,28.82,28.41,26,7,26,0.00
2013-4-20,50.0,30.3,16.9,25.4,18.3,12.9,87,64,37,29.06,28.82,16,4,16,0.00
2013-4-21,49.8,38.5,30.4,43.1,34.0,25.1,97,84,59,29.03,28.76,27,10,27,0.00
2013-4-22,36.7,33.3,28.8,32.7,28.5,22.2,95,83,57,29.03,28.94,20,6,20,0.00
2013-4-23,41.5,30.9,21.6,25.2,20.1,14.5,85,65,49,29.03,28.82,19,8,19,0.00
2013-4-24,46.8,35.0,23.4,35.7,26.9,18.4,98,74,44,28.88,28.64,30,8,30,0.00
2013-4-25,55.6,39.5,25.3,32.1,27.2,0.0,100,65,39,28.94,28.73,25,8,25,0.00
2013-4-26,75.4,52.6,33.6,44.0,34.8,23.6,85,55,25,28.88,28.64,23,6,23,0.00
2013-4-27,77.0,53.5,30.2,38.9,30.7,24.8,83,48,16,28.91,28.58,10,3,10,0.00
2013-4-28,78.8,60.6,48.7,48.8,42.7,30.5,81,55,30,28.61,28.41,18,6,18,0.00
2013-4-29,82.2,56.4,38.1,43.2,28.4,-19.6,81,47,2,28.61,28.23,15,5,15,0.00
2013-4-30,69.6,59.0,48.0,55.1,40.6,26.6,83,54,24,28.76,28.11,28,13,33,0.00
2013-5-1,48.4,39.7,33.8,30.4,23.9,18.5,67,53,43,29.29,28.76,25,9,25,0.00
2013-5-2,50.2,38.8,31.5,25.7,22.5,18.2,72,53,38,29.38,29.20,25,8,25,0.00
2013-5-3,47.8,37.0,26.6,32.2,22.2,16.4,83,56,39,29.23,28.91,26,9,26,0.00
2013-5-4,40.5,37.4,34.5,38.3,35.3,31.8,97,92,85,28.94,28.88,22,9,22,0.00
2013-5-5,57.7,46.0,37.9,46.1,41.6,37.2,98,86,63,28.94,28.85,10,4,10,0.00
2013-5-6,77.9,55.9,37.6,53.0,43.9,36.3,96,69,38,28.91,28.76,9,2,9,0.00
2013-5-7,83.7,61.2,39.2,53.5,43.4,36.3,95,59,26,28.85,28.67,14,2,14,0.00
2013-5-8,64.2,57.9,52.5,57.8,52.2,41.2,96,82,46,28.82,28.70,18,5,18,0.00
2013-5-9,56.3,53.0,46.2,54.2,48.7,36.5,97,86,66,28.91,28.73,27,12,27,0.00
2013-5-10,74.7,54.7,36.9,46.8,29.7,-14.5,79,46,3,28.94,28.64,29,8,29,0.00
2013-5-11,54.9,46.0,35.1,35.5,24.7,16.7,73,45,26,28.97,28.76,33,12,33,0.00
2013-5-12,63.1,46.9,30.2,26.4,11.6,-10.7,66,33,5,29.03,28.85,20,5,20,0.00
2013-5-13,82.6,61.8,37.9,49.3,36.3,22.8,57,39,30,28.85,28.41,18,6,18,0.00
2013-5-14,99.3,71.2,45.5,57.0,32.7,-17.0,85,39,2,28.52,28.29,40,10,40,0.00
2013-5-15,83.8,66.2,48.9,49.0,43.0,37.1,78,46,21,28.70,28.52,22,6,22,0.00
2013-5-16,88.2,66.3,45.3,50.1,43.7,37.4,80,47,23,28.67,28.55,27,9,27,0.00
2013-5-17,66.0,60.6,56.8,57.0,50.5,0.0,95,73,35,28.73,28.61,31,16,31,0.00
2013-5-18,77.7,66.0,57.2,68.5,61.8,55.5,98,87,69,28.67,28.47,27,9,27,0.00
2013-5-19,84.9,68.2,61.0,68.8,62.5,57.5,97,84,47,28.52,28.29,33,7,33,0.00
2013-5-20,71.1,63.1,59.0,64.2,58.6,52.5,97,86,62,28.32,28.23,18,5,18,0.00
2013-5-21,59.0,53.1,48.4,57.7,52.0,47.2,98,96,90,28.52,28.23,28,13,31,0.00
2013-5-22,54.0,49.4,45.7,50.2,46.8,42.6,98,91,75,28.82,28.50,42,15,42,0.00
2013-5-23,68.5,54.9,42.6,43.2,39.6,34.8,90,60,34,29.09,28.82,24,8,24,0.00
2013-5-24,74.5,56.3,39.0,52.5,40.6,30.7,90,59,32,29.12,28.88,27,9,27,0.00
2013-5-25,59.4,56.2,53.4,51.6,49.5,46.5,86,78,72,30.13,28.88,32,16,32,0.10
2013-5-26,57.3,54.1,51.2,51.0,47.5,43.9,88,79,66,30.13,29.91,28,17,37,11.38
2013-5-27,62.9,57.4,53.6,55.2,53.0,49.8,95,86,71,29.97,29.74,20,13,28,0.00
2013-5-28,67.6,58.1,53.2,60.5,55.2,50.9,97,90,72,29.76,29.65,14,5,18,0.00
2013-5-29,73.2,62.8,53.9,68.4,60.1,52.8,98,91,78,29.76,29.50,22,8,30,0.00
2013-5-30,81.5,69.0,62.7,64.4,60.8,55.8,94,77,48,29.54,29.37,20,7,23,0.00
2013-5-31,66.9,63.4,58.2,61.7,53.6,50.7,90,71,59,29.47,29.34,8,3,13,0.00
2013-6-1,68.9,57.2,50.1,57.8,50.1,42.9,95,78,64,29.98,29.47,10,3,15,0.00
2013-6-2,69.9,57.6,45.8,47.0,40.5,36.8,86,55,36,30.08,29.94,9,3,13,1.33
2013-6-3,73.2,57.2,40.6,50.3,43.3,37.0,93,63,37,30.06,29.85,22,6,28,0.75
2013-6-4,60.9,57.9,55.7,57.2,53.1,45.2,97,85,58,30.02,29.87,20,11,26,0.75
2013-6-5,66.7,58.9,55.0,55.6,53.6,50.8,97,83,60,30.00,29.88,12,4,18,0.00
2013-6-6,61.8,54.9,50.7,52.8,50.2,48.1,95,84,70,30.04,29.96,9,5,13,0.00
2013-6-7,68.7,58.5,52.1,54.2,50.6,47.3,91,76,49,30.06,29.84,7,2,9,0.00
2013-6-8,68.9,62.0,56.3,56.4,53.0,49.0,90,73,51,29.87,29.77,13,6,19,0.00
2013-6-9,61.5,59.1,57.3,58.5,57.1,54.0,97,93,77,29.81,29.68,24,12,31,2.67
2013-6-10,58.1,57.3,56.6,57.0,56.3,55.5,97,97,96,29.81,29.75,3,1,5,0.00
2013-6-11,76.6,68.8,62.2,67.9,61.0,54.7,96,78,51,29.86,29.75,9,2,11,0.00
2013-6-12,72.3,64.6,60.0,62.6,56.8,51.3,92,76,60,29.93,29.68,28,4,36,0.66
2013-6-13,83.6,68.3,55.5,59.1,54.0,50.0,83,63,37,30.06,29.92,9,3,15,0.00
2013-6-14,80.9,70.6,61.5,63.6,59.2,54.6,86,68,49,29.99,29.68,22,9,28,0.00
2013-6-15,82.5,71.8,59.9,66.6,56.5,44.9,94,63,32,29.80,29.67,11,2,13,0.00
2013-6-16,88.3,70.8,56.8,56.6,51.1,44.3,81,54,23,29.84,29.67,16,4,28,0.00
2013-6-17,80.7,70.3,57.9,59.9,54.4,52.1,86,59,40,29.88,29.76,12,5,19,0.00
2013-6-18,81.5,67.8,54.8,59.0,54.9,47.7,92,66,43,30.00,29.83,16,5,21,0.08
2013-6-19,92.4,75.9,64.0,64.9,59.0,54.4,83,59,37,29.92,29.69,10,5,13,0.00
2013-6-20,89.4,78.3,71.0,69.1,64.3,59.9,81,63,44,29.84,29.57,14,5,19,0.00
2013-6-21,80.9,71.8,61.5,68.7,65.0,60.0,97,80,61,29.92,29.52,26,10,57,0.90
2013-6-22,82.5,71.3,64.9,70.9,65.8,61.0,92,83,61,29.82,29.60,32,5,38,0.00
2013-6-23,79.5,72.4,65.3,68.9,64.7,58.5,97,79,52,29.70,29.36,20,6,30,0.00
2013-6-24,80.9,70.9,60.4,71.0,65.4,58.4,96,84,66,29.74,29.58,17,3,19,0.00
2013-6-25,92.8,77.2,66.9,73.9,69.7,64.5,93,79,52,29.63,29.43,15,7,18,0.00
2013-6-26,86.7,77.8,70.1,71.8,67.3,61.3,93,72,45,29.61,29.43,17,4,27,0.00
2013-6-27,86.9,76.1,67.1,66.1,59.7,50.5,92,61,35,29.69,29.59,18,7,27,0.00
2013-6-28,78.4,71.4,64.9,62.4,58.0,55.1,80,64,47,29.73,29.67,19,8,26,0.00
2013-6-29,82.4,70.5,61.7,62.9,56.6,49.6,92,65,37,29.86,29.64,13,4,20,0.00
2013-6-30,86.1,70.6,57.5,57.7,53.4,49.7,88,59,32,30.03,29.86,7,2,17,0.00
2013-7-1,91.0,73.1,59.3,64.3,57.5,51.9,91,63,31,30.11,29.91,7,2,9,0.00
2013-7-2,93.7,73.5,60.0,63.2,58.4,54.8,90,63,34,30.08,29.84,7,2,9,0.00
2013-7-3,93.3,75.1,60.2,63.2,56.0,52.1,90,56,30,29.96,29.73,10,2,15,0.00
2013-7-4,94.2,78.5,65.3,63.4,57.0,52.0,71,50,32,29.82,29.59,6,2,10,0.00
2013-7-5,92.8,80.4,70.3,66.9,60.8,54.5,65,52,40,29.69,29.50,6,3,10,0.00
2013-7-6,83.6,75.6,68.3,73.1,67.2,61.7,93,76,60,29.72,29.58,8,2,10,0.33
2013-7-7,96.4,78.0,69.8,76.8,71.0,66.8,94,81,50,29.81,29.64,10,1,13,0.29
2013-7-8,90.5,75.3,64.4,71.7,66.1,61.2,90,75,47,29.89,29.78,9,3,11,0.00
2013-7-9,83.3,74.2,66.3,71.9,68.0,59.6,97,82,61,29.88,29.60,19,8,30,2.20
2013-7-10,81.5,69.4,58.1,61.8,57.5,54.2,94,69,42,29.99,29.88,9,3,13,0.00
2013-7-11,89.4,73.1,57.7,63.7,59.7,55.7,94,67,39,30.02,29.78,9,2,13,0.00
2013-7-12,93.0,79.4,69.0,69.2,62.7,57.0,72,58,42,29.84,29.65,8,4,14,0.00
2013-7-13,78.6,73.3,70.3,70.1,66.8,62.0,87,80,57,29.90,29.74,17,7,21,0.08
2013-7-14,73.2,70.3,68.3,68.8,65.0,60.3,96,84,72,30.06,29.87,10,2,13,0.13
2013-7-15,91.5,76.9,66.9,70.9,67.3,64.3,95,75,45,30.12,30.00,7,2,10,0.00
2013-7-16,92.1,81.1,72.6,73.6,69.2,63.9,89,69,45,30.08,29.99,6,2,8,0.00
2013-7-17,93.2,81.4,71.4,74.1,69.7,66.5,86,69,47,30.14,29.96,6,2,10,0.00
2013-7-18,92.6,83.2,74.6,74.1,70.9,67.3,84,68,46,29.98,29.60,9,4,13,0.00
2013-7-19,84.7,76.3,66.7,72.8,64.2,58.4,91,68,44,29.82,29.64,13,5,18,0.00
2013-7-20,80.6,70.3,61.7,66.6,62.0,58.7,93,76,52,29.87,29.74,9,3,12,0.00
2013-7-21,87.2,74.5,65.8,68.9,64.3,58.7,88,72,51,29.82,29.63,12,6,16,0.00
2013-7-22,84.7,73.5,62.2,71.5,63.5,52.9,92,73,48,29.83,29.53,14,4,18,0.00
2013-7-23,83.4,68.0,56.8,58.7,54.5,50.7,91,65,38,29.93,29.77,8,2,10,0.00
2013-7-24,83.1,70.2,58.6,59.6,56.2,52.1,90,64,38,29.95,29.81,7,2,11,0.00
2013-7-25,77.3,68.9,60.9,67.2,62.1,57.3,95,80,57,29.91,29.77,11,3,15,0.16
2013-7-26,70.1,61.5,52.8,60.3,52.7,46.0,94,74,50,30.07,29.84,15,6,21,0.00
2013-7-27,71.2,59.5,47.3,49.5,44.9,42.1,88,61,41,30.07,29.82,13,4,18,0.00
2013-7-28,78.0,62.3,49.4,53.3,47.4,42.0,82,60,39,30.00,29.86,7,2,11,0.00
2013-7-29,84.7,64.5,48.2,60.3,53.3,45.2,94,70,39,30.02,29.91,9,2,12,0.00
2013-7-30,73.2,66.4,60.8,65.0,62.4,58.1,97,87,70,30.01,29.87,8,1,10,0.00
2013-7-31,81.1,66.0,56.4,67.7,57.6,49.2,97,77,46,30.01,29.86,15,3,30,0.00
2013-8-1,86.7,67.0,51.8,58.7,54.4,47.7,92,67,38,29.97,29.74,8,2,12,0.00
2013-8-2,76.2,66.1,54.3,59.6,53.5,49.7,92,66,44,29.99,29.77,5,2,9,0.00
2013-8-3,81.5,65.5,52.5,59.1,50.5,44.4,87,62,38,30.12,29.96,6,2,11,0.00
2013-8-4,77.9,64.7,49.2,59.3,53.2,44.2,96,68,46,30.16,29.85,10,4,13,0.00
2013-8-5,82.4,68.8,60.6,68.1,62.2,56.4,96,81,56,29.95,29.67,21,3,24,0.00
2013-8-6,84.7,68.0,56.3,68.6,61.5,53.7,96,82,50,29.77,29.54,15,2,34,0.00
2013-8-7,81.3,66.4,57.3,60.4,54.7,49.5,97,70,39,29.93,29.71,6,2,10,0.00
2013-8-8,78.4,65.2,55.7,62.8,57.8,51.4,94,79,50,29.97,29.86,3,1,6,0.00
2013-8-9,74.6,64.1,53.7,59.5,53.4,49.3,95,71,43,30.05,29.90,11,3,17,0.00
2013-8-10,83.4,66.2,53.4,59.1,54.3,50.5,94,69,39,30.13,29.93,6,2,8,0.00
2013-8-11,89.4,71.3,62.0,66.5,60.2,57.3,89,70,41,29.98,29.85,6,2,9,0.00
2013-8-12,81.6,67.5,56.3,61.2,55.8,52.5,92,69,40,30.00,29.89,7,2,11,1.61
2013-8-13,86.0,66.1,52.1,61.2,51.3,46.2,94,63,33,30.12,29.98,6,2,9,0.00
2013-8-14,82.5,62.8,48.7,58.9,50.5,44.7,93,68,38,30.13,29.94,5,1,8,0.00
2013-8-15,81.3,63.7,51.0,63.5,55.1,47.0,95,76,46,30.05,29.91,4,1,7,0.00
2013-8-16,84.2,65.7,50.5,63.3,55.1,48.0,96,72,41,30.10,29.98,8,1,9,0.00
2013-8-17,84.5,69.8,57.2,60.9,57.8,51.7,89,68,42,30.06,29.91,5,2,9,0.00
2013-8-18,83.3,71.7,61.7,61.6,58.8,56.1,82,65,46,30.01,29.83,5,2,10,0.00
2013-8-19,91.5,76.7,66.2,71.6,66.6,60.1,89,72,50,29.91,29.72,7,2,9,0.00
2013-8-20,94.8,79.6,69.2,76.4,71.9,67.1,93,79,52,29.81,29.66,8,2,11,0.00
2013-8-21,92.3,79.2,70.8,76.8,67.5,54.1,95,71,44,29.90,29.67,10,2,13,0.00
2013-8-22,87.6,73.7,60.8,60.2,54.2,49.9,79,53,30,30.08,29.90,13,5,18,0.00
2013-8-23,91.4,72.8,55.7,69.8,62.0,50.0,86,70,42,30.09,29.85,13,5,17,0.00
2013-8-24,93.3,80.0,71.2,74.2,70.7,67.3,91,75,44,29.93,29.71,8,4,15,0.00
2013-8-25,93.2,82.8,75.0,77.2,74.1,70.7,87,76,55,29.86,29.74,5,2,9,0.00
2013-8-26,98.2,83.7,74.1,77.7,74.8,71.3,91,77,46,29.86,29.64,5,1,9,0.00
2013-8-27,92.4,81.6,72.1,80.3,74.8,68.0,94,81,63,29.84,29.64,9,2,11,0.00
2013-8-28,86.5,77.4,66.2,76.5,71.9,63.9,97,84,68,29.91,29.78,14,4,19,0.00
2013-8-29,95.1,81.6,75.2,76.0,72.3,67.3,95,76,46,29.86,29.65,7,2,10,0.00
2013-8-30,87.6,75.3,64.5,72.3,66.1,60.1,94,75,46,29.84,29.70,11,3,13,0.00
2013-8-31,93.2,72.0,60.0,70.2,64.5,57.7,97,81,43,29.83,29.59,21,3,32,2.64
2013-9-1,67.2,63.2,54.5,66.0,58.7,52.2,96,86,70,29.97,29.70,12,6,18,0.00
2013-9-2,72.3,58.5,48.2,53.8,50.4,46.2,95,77,51,30.03,29.91,6,2,10,0.00
2013-9-3,78.6,62.4,46.4,63.9,55.0,43.5,95,79,53,30.01,29.83,4,0,6,0.00
2013-9-4,91.9,71.5,55.4,69.8,62.7,53.7,97,77,45,30.03,29.90,9,2,15,0.00
2013-9-5,90.3,74.8,66.0,69.1,63.7,56.8,82,69,47,30.09,29.91,11,6,15,0.00
2013-9-6,93.3,78.1,69.2,72.2,66.8,62.7,91,70,43,29.97,29.68,5,2,10,0.00
2013-9-7,92.3,78.0,66.9,71.8,68.3,65.1,95,75,44,29.89,29.75,14,4,23,0.00
2013-9-8,73.9,67.1,64.7,66.6,62.0,58.7,91,84,70,29.94,29.76,16,8,20,0.00
2013-9-9,86.1,74.2,66.3,76.2,69.0,61.7,96,85,67,29.76,29.47,17,5,23,0.00
2013-9-10,82.2,71.0,64.2,67.5,62.7,56.5,96,78,47,29.89,29.66,11,4,18,0.00
2013-9-11,84.2,69.6,58.4,64.0,55.5,44.3,93,65,35,30.05,29.88,14,4,19,0.00
2013-9-12,78.9,62.6,51.2,55.2,48.5,43.9,89,63,35,30.19,30.02,8,2,13,0.00
2013-9-13,77.5,59.6,45.1,51.8,45.9,41.2,90,64,37,30.21,29.94,7,2,12,0.00
2013-9-14,64.7,58.1,53.0,57.8,51.6,43.9,96,80,62,29.97,29.71,13,4,20,0.00
2013-9-15,67.4,58.1,46.4,58.7,53.5,43.0,98,85,62,30.24,29.72,14,5,19,0.00
2013-9-16,73.7,57.5,47.6,51.2,47.5,42.1,97,72,40,30.29,30.07,13,6,17,0.00
2013-9-17,64.0,58.1,52.5,57.8,53.6,48.6,96,85,74,30.10,29.77,16,5,21,0.00
2013-9-18,78.2,68.0,59.1,71.1,65.3,57.7,97,92,78,29.78,29.49,11,4,14,0.00
2013-9-19,72.8,67.2,58.8,69.5,62.1,50.6,97,85,53,29.75,29.48,15,6,30,0.00
2013-9-20,63.6,55.6,46.7,54.8,49.8,43.3,96,81,57,29.87,29.72,15,7,22,0.00
2013-9-21,69.2,53.3,40.4,50.3,44.8,37.9,96,76,44,29.94,29.77,10,3,14,0.60
2013-9-22,82.2,63.8,52.1,56.8,51.9,47.6,87,68,40,29.85,29.63,19,10,25,0.43
2013-9-23,78.0,65.3,57.2,55.0,51.9,48.8,82,64,42,29.80,29.65,16,7,21,0.00
2013-9-24,71.2,61.4,51.2,57.5,52.0,47.2,86,72,54,29.86,29.75,9,3,11,0.00
2013-9-25,80.7,62.2,47.8,60.3,51.4,45.0,95,71,41,29.86,29.68,16,5,21,0.00
2013-9-26,82.0,68.7,58.8,60.9,56.2,52.4,85,66,46,29.77,29.58,19,9,27,0.00
2013-9-27,74.3,69.0,64.5,67.5,63.2,59.0,93,82,66,29.73,29.56,16,5,22,0.16
2013-9-28,72.6,58.9,49.2,61.3,51.4,41.0,97,77,51,29.86,29.49,17,6,26,0.53
2013-9-29,80.2,60.4,45.3,52.4,45.1,41.2,86,61,35,29.87,29.56,6,2,12,0.00
2013-9-30,76.1,66.3,56.1,52.4,47.8,43.3,70,52,42,29.59,29.42,4,2,10,0.00
2013-10-1,71.6,61.4,45.8,52.5,43.2,35.1,82,54,28,29.90,29.39,17,5,23,0.00
2013-10-2,78.9,54.4,39.9,53.8,44.3,33.9,95,73,32,29.95,29.66,21,6,27,0.50
2013-10-3,55.7,54.4,52.7,55.2,53.6,51.3,98,97,94,29.88,29.72,14,8,19,1.00
2013-10-4,57.7,55.3,53.4,55.3,53.9,52.4,98,95,90,29.88,29.66,28,15,37,0.04
2013-10-5,57.3,52.0,44.9,56.8,46.9,40.0,98,83,61,29.74,29.60,22,7,28,0.00
2013-10-6,55.7,48.4,43.8,50.9,45.3,39.3,97,89,64,29.81,29.55,7,3,11,0.17
2013-10-7,71.7,51.7,39.9,52.5,41.9,38.0,96,72,41,29.88,29.75,4,1,7,0.00
2013-10-8,76.6,63.2,52.5,48.7,44.2,41.4,74,52,33,29.82,29.55,7,3,13,0.00
2013-10-9,76.8,63.0,53.9,53.1,47.8,43.4,76,59,42,29.89,29.71,8,3,11,0.00
2013-10-10,79.5,65.0,54.5,55.3,49.0,46.1,77,58,41,29.87,29.64,15,5,18,0.00
2013-10-11,67.4,61.2,52.8,61.0,53.6,45.6,94,76,56,29.71,29.39,22,10,28,0.54
2013-10-12,54.1,49.3,40.4,46.3,40.5,32.8,94,72,52,30.10,29.54,17,7,26,0.03
2013-10-13,61.8,45.2,33.9,42.9,34.3,29.9,91,69,38,30.31,30.10,6,2,9,0.00
2013-10-14,50.0,48.0,40.6,48.1,42.3,34.3,96,81,65,30.28,29.74,31,13,42,0.45
2013-10-15,50.0,47.5,44.4,49.0,46.4,42.4,98,96,91,29.84,29.55,33,11,39,0.38
2013-10-16,54.5,44.3,35.0,42.8,36.4,30.3,97,76,46,29.89,29.73,9,4,12,0.00
2013-10-17,49.4,41.6,35.0,46.1,38.7,31.5,97,89,78,29.82,29.70,13,4,23,0.37
2013-10-18,51.8,40.8,32.0,39.2,33.3,27.8,96,77,43,29.93,29.74,12,4,17,0.00
2013-10-19,39.7,35.4,31.4,34.6,30.5,25.7,95,83,57,29.78,29.65,6,3,8,0.04
2013-10-20,41.1,36.9,31.4,38.6,32.4,20.2,93,84,56,29.87,29.51,13,4,23,0.04
2013-10-21,39.9,33.3,27.1,23.2,20.4,17.6,78,59,49,29.92,29.83,17,7,22,0.00
2013-10-22,44.6,32.9,24.0,32.6,24.6,19.1,92,73,51,29.96,29.86,11,4,15,0.00
2013-10-23,41.0,34.2,29.1,28.6,22.4,16.2,89,64,44,30.10,29.90,11,5,19,0.00
2013-10-24,43.8,35.0,26.6,32.3,27.4,15.5,92,74,54,30.25,30.04,11,6,17,0.00
2013-10-25,59.9,41.5,23.9,42.0,31.2,20.0,88,69,47,30.26,29.65,13,5,17,0.00
2013-10-26,47.4,38.7,29.1,33.6,26.4,23.3,83,62,48,30.06,29.74,17,8,26,0.00
2013-10-27,58.6,41.7,28.7,35.1,28.3,22.7,86,61,40,30.07,29.66,13,5,19,0.00
2013-10-28,46.4,35.4,28.7,28.3,23.6,19.1,81,63,44,30.37,30.07,19,11,24,0.00
2013-10-29,36.6,34.5,31.6,34.3,29.8,22.8,91,83,69,30.34,29.95,14,9,18,0.04
2013-10-30,44.0,40.2,36.1,43.2,39.4,34.0,98,97,90,30.02,29.57,11,5,13,0.04
2013-10-31,41.1,38.5,36.1,40.6,37.7,35.6,98,97,94,29.63,29.33,9,6,15,0.00
2013-11-1,49.8,40.4,33.6,38.9,35.9,32.5,97,85,60,29.82,29.33,15,6,20,0.04
2013-11-2,54.8,38.9,30.5,40.2,32.3,25.5,98,79,49,30.00,29.76,8,3,11,0.00
2013-11-3,55.4,45.4,36.1,35.4,32.0,29.3,90,62,38,29.96,29.62,19,10,35,0.00
2013-11-4,48.7,41.7,32.1,39.8,32.6,26.7,87,71,51,30.06,29.62,16,6,22,0.00
2013-11-5,37.7,32.8,27.6,28.4,25.2,20.4,88,75,50,30.17,29.97,7,2,10,0.00
2013-11-6,43.5,32.6,23.7,27.8,24.5,19.5,90,73,42,30.07,29.99,9,4,14,0.05
2013-11-7,40.8,29.5,22.6,30.0,22.7,17.4,96,78,45,30.17,30.05,10,3,17,0.00
2013-11-8,42.2,34.5,21.3,39.6,27.0,16.6,96,75,53,30.09,29.48,25,8,35,0.04
2013-11-9,42.9,38.9,35.6,39.0,29.2,21.7,93,69,50,30.17,29.55,24,14,34,0.00
2013-11-10,36.1,33.2,26.0,30.3,25.6,20.1,87,74,61,30.26,29.99,14,4,20,0.00
2013-11-11,34.7,20.2,11.1,29.1,6.2,1.0,80,54,45,30.70,30.05,13,7,18,0.00
2013-11-12,32.1,19.3,7.8,11.7,5.3,-2.0,76,55,35,30.77,30.30,9,4,11,0.00
2013-11-13,53.6,35.5,23.1,31.8,22.9,10.4,78,61,43,30.30,29.77,11,5,15,0.00
2013-11-14,53.9,38.7,25.8,35.0,29.5,20.4,86,71,48,29.84,29.67,15,4,24,0.00
2013-11-15,57.2,39.2,21.9,39.5,30.2,18.1,95,72,45,29.81,29.45,8,3,14,0.00
2013-11-16,46.5,42.0,37.0,46.0,39.8,33.0,98,92,71,29.48,29.13,13,5,16,0.00
2013-11-17,41.7,36.9,29.4,41.1,32.6,20.2,98,85,68,29.82,29.20,22,12,31,0.00
2013-11-18,36.1,27.9,20.3,21.9,17.6,12.2,81,66,48,30.18,29.79,23,8,31,0.00
2013-11-19,49.6,37.7,24.6,31.3,25.8,19.0,80,63,46,30.14,29.66,20,10,30,0.00
2013-11-20,48.0,42.1,33.2,31.7,29.1,26.4,88,61,51,29.93,29.63,12,6,19,0.00
2013-11-21,33.6,23.1,16.8,29.6,13.3,5.6,89,67,54,30.53,29.93,18,9,25,0.00
2013-11-22,33.9,16.4,6.2,9.5,3.4,-4.0,70,57,33,30.68,30.33,16,7,25,0.00
2013-11-23,17.4,8.2,1.9,1.5,-5.6,-11.0,56,52,46,30.85,30.59,10,4,15,0.00
2013-11-24,39.0,23.6,8.0,23.2,7.2,-7.0,63,49,40,30.62,29.77,12,6,17,0.00
2013-11-25,39.7,32.8,27.1,26.3,21.9,13.9,85,65,49,30.04,29.77,17,10,26,0.00
2013-11-26,27.1,18.0,9.5,14.0,4.5,-1.0,69,55,46,30.37,30.04,19,9,29,0.00
2013-11-27,23.1,15.1,4.4,8.6,2.6,-6.0,74,57,50,30.40,29.93,17,5,24,0.00
2013-11-28,26.4,18.7,6.0,12.3,5.3,-5.0,67,55,45,30.44,29.96,12,5,17,0.00
2013-11-29,35.9,23.5,5.8,18.1,10.8,-6.0,73,58,46,30.44,29.98,13,5,18,0.00
2013-11-30,37.9,26.0,15.8,22.8,17.3,10.1,89,70,51,30.15,29.93,11,4,15,0.00
2013-12-1,33.2,24.4,14.3,25.6,19.1,9.3,91,80,67,30.17,29.79,9,3,11,0.00
2013-12-2,35.0,32.5,28.5,33.5,29.1,22.3,97,87,76,29.79,29.41,15,8,20,0.04
2013-12-3,33.8,33.2,32.5,33.1,32.7,31.5,98,98,96,29.72,29.47,15,7,19,0.00
2013-12-4,32.5,23.6,7.1,31.5,20.9,3.1,96,89,82,29.73,29.43,26,11,36,0.00
2013-12-5,7.3,2.7,-3.0,3.2,-1.1,-7.0,83,83,83,30.32,29.73,26,14,33,0.00
2013-12-6,3.3,-5.6,-10.0,0.0,-9.3,-14.0,83,83,83,30.65,30.32,14,6,18,0.00
2013-12-7,0.6,-7.6,-14.0,-3.0,-11.3,-18.0,83,83,83,30.69,30.51,9,4,11,0.00
2013-12-8,14.9,3.8,-6.0,9.6,-3.2,-15.0,83,72,58,30.51,30.00,14,6,16,0.00
2013-12-9,5.5,-2.3,-8.0,-6.0,-13.2,-19.0,58,58,58,30.11,29.73,19,8,29,0.00
2013-12-10,11.8,4.7,-4.0,0.0,-6.5,-15.0,58,58,58,30.34,29.65,19,8,26,0.00
2013-12-11,2.4,-5.6,-14.0,-8.0,-16.4,-24.0,58,58,58,30.56,30.20,9,4,13,0.00
2013-12-12,19.2,9.0,-3.0,6.0,-2.0,-14.0,70,60,54,30.25,30.08,7,2,10,0.00
2013-12-13,13.4,9.9,5.5,5.5,2.3,-2.0,70,70,70,30.26,30.02,21,13,26,0.00
2013-12-14,10.4,4.9,-3.0,2.5,-2.5,-10.0,70,70,70,30.26,30.06,14,7,18,0.00
2013-12-15,8.4,2.0,-2.0,0.6,-5.2,-9.0,70,70,70,30.17,30.04,11,5,13,0.00
2013-12-16,30.3,12.2,2.8,24.1,5.1,-4.0,92,72,62,30.08,29.79,13,5,17,0.00
2013-12-17,32.5,20.4,1.9,25.9,12.1,-6.0,85,70,56,30.09,29.78,23,10,33,0.00
2013-12-18,35.0,22.5,3.2,23.0,14.1,-5.0,88,70,60,30.02,29.53,13,4,20,0.00
2013-12-19,20.4,12.3,10.0,14.5,4.0,1.6,78,69,68,30.09,29.81,18,9,23,0.00
2013-12-20,16.8,10.5,4.4,5.1,1.2,-3.0,68,65,56,30.03,29.80,13,5,17,0.00
2013-12-21,16.1,12.2,7.7,7.9,2.2,-3.0,75,63,60,29.99,29.78,10,4,12,0.00
2013-12-22,10.0,3.0,-8.0,0.0,-7.1,-17.0,61,61,61,30.30,29.97,14,7,19,0.00
2013-12-23,-3.0,-11.5,-19.0,-13.0,-21.1,-28.0,61,61,61,30.55,30.30,11,6,16,0.00
2013-12-24,11.6,-0.9,-21.0,0.8,-10.7,-30.0,61,61,61,30.53,30.03,14,5,20,0.00
2013-12-25,27.3,17.2,10.4,25.0,11.0,0.8,95,76,61,30.15,29.92,19,6,31,0.00
2013-12-26,33.2,19.9,5.3,24.3,14.0,0.0,85,77,66,30.09,29.90,6,2,7,0.00
2013-12-27,41.0,30.7,21.2,31.8,25.6,18.7,95,82,61,30.11,29.76,13,5,19,0.08
2013-12-28,41.0,25.3,10.4,32.8,20.7,2.8,97,84,57,30.15,29.54,16,6,23,0.00
2013-12-29,10.2,-8.4,-18.0,2.7,-15.2,-24.0,71,71,71,30.46,30.09,13,6,20,0.00
2013-12-30,7.8,-4.2,-17.0,0.4,-11.1,-23.0,71,71,71,30.31,30.10,14,4,19,0.00
2013-12-31,1.3,-5.3,-14.0,-5.0,-11.9,-20.0,71,71,71,30.38,30.23,9,4,12,0.00
2014-1-1,-6.0,-6.0,-6.0,-12.0,-12.0,-12.0,71,71,71,30.48,30.32,1,1,1,0.00
2014-1-2,-6.0,-6.0,-6.0,-12.0,-12.0,-12.0,71,71,71,30.51,30.26,7,2,8,0.00